Regional Weather Roundup
Issued by NWS

Home | Current Version | Previous Version | Text Only | Print | Product List | Glossary On
Versions: 1 2 3 4 5 6 7 8 9 10 11 12 13 14 15 16 17 18 19 20 21 22 23 24 25 26 27 28 29 30 31 32 33 34 35 36 37 38 39 40 41 42 43 44 45 46 47 48 49 50
000
ASUS46 KPQR 072310
RWROR

OREGON REGIONAL WEATHER ROUNDUP
NATIONAL WEATHER SERVICE PORTLAND OR
400 PM PDT TUE JUL 07 2015

NOTE: "FAIR" INDICATES FEW OR NO CLOUDS BELOW 12,000 FEET WITH
NO SIGNIFICANT WEATHER AND/OR OBSTRUCTIONS TO VISIBILITY.

ORZ001>013-080000-
NORTHWEST OREGON


CITY           SKY/WX    TMP DP  RH WIND       PRES   REMARKS
ASTORIA        SUNNY     69  56  62 W13       29.98F
NEWPORT        SUNNY     64  54  68 NW12      30.02F
PORTLAND       PTSUNNY   85  55  35 VRB5      29.89F
VANCOUVER WA   SUNNY     84  53  34 VRB7      29.88F
SCAPPOOSE      SUNNY     84  59  42 E9        29.88F
HILLSBORO      SUNNY     84  52  33 W6        29.89F
AURORA         MOSUNNY   84  56  38 VRB5      29.90F
MCMINNVILLE    SUNNY     85  56  37 NW3       29.90F
SALEM          MOSUNNY   86  55  34 VRB3      29.89F
CORVALLIS      MOSUNNY   88  55  33 NW12G17   29.91F
EUGENE         PTSUNNY   90  53  28 N9        29.89F
$$

ORZ021-028-080000-
SOUTHWEST OREGON


CITY           SKY/WX    TMP DP  RH WIND       PRES   REMARKS
NORTH BEND     SUNNY     64  55  72 NW12      30.00F
BROOKINGS      SUNNY     65  58  78 NW8       30.00S
ROSEBURG       MOSUNNY   92  57  30 N13       29.87F HX  90
SEXTON SUMMIT  MOSUNNY   81  54  39 VRB3      30.01F
MEDFORD        CLOUDY    95  54  25 VRB3      29.81F HX  93
$$

ORZ014>016-041-080000-
COLUMBIA GORGE


CITY           SKY/WX    TMP DP  RH WIND       PRES   REMARKS
TROUTDALE      SUNNY     86  54  33 NW7       29.87F
THE DALLES     SUNNY     98  40  13 NW21      29.76F HX  93
$$

ORZ029>031-041-044-049-050-061>064-502-503-505>511-080000-
EASTERN OREGON


CITY           SKY/WX    TMP DP  RH WIND       PRES   REMARKS
REDMOND        SUNNY     92  48  22 N13G21    29.91F
BEND             N/A    N/A N/A N/A MISG        N/A
PRINEVILLE     SUNNY     91  45  19 NW22      29.92F
KLAMATH FALLS  PTSUNNY   85  51  31 W21       29.98R
LAKEVIEW       MOSUNNY   88  43  20 N8G16     29.99F
HERMISTON      SUNNY     99  38  12 N6        29.76F HX  94
PENDLETON      SUNNY     98  38  12 W9        29.81F HX  93
JOHN DAY       PTSUNNY   94  33  12 NW10G18   29.94S
MEACHAM        SUNNY     86  43  22 MISG      29.97F
LA GRANDE      MOSUNNY   93  48  21 N6        29.88F HX  90
BAKER CITY     NOT AVBL
BURNS          PTSUNNY   91  39  16 N13       29.96F
ROME             N/A     81  46  29 E28G38    29.97R SQUALL
ONTARIO        SUNNY     95  42  16 CALM      29.84F HX  91
$$



USA.gov is the U.S. government's official web portal to all federal, state and local government web resources and services.